Regional Weather Roundup
Issued by NWS

Home | Current Version | Previous Version | Graphics & Text | Print | Product List | Glossary On
Versions: 1 2 3 4 5 6 7 8 9 10 11 12 13 14 15 16 17 18 19 20 21 22 23 24 25 26 27 28 29 30 31 32 33 34 35 36 37 38 39 40 41 42 43 44 45 46 47 48 49 50
000
ASUS44 KMEG 171000
RWRTN
TENNESSEE HOURLY STATE WEATHER ROUNDUP
NATIONAL WEATHER SERVICE MEMPHIS TN
500 AM CDT THU AUG 17 2017

TNZ002-004-019-021-049-052-054-088>092-171100-
WEST TENNESSEE

CITY           SKY/WX    TMP DP  RH WIND       PRES   REMARKS
MEMPHIS INTL   CLOUDY    77  74  90 SW13      29.96S
NWS MEMPHIS      N/A     77 N/A N/A MISG        N/A
JACKSON        CLEAR     75  75 100 S8        29.97S
DYERSBURG      CLEAR     75  72  90 S6        29.96R
$$

TNZ008-025-027-028-033-062-065-066-171100-
NORTH MIDDLE TENNESSEE

CITY           SKY/WX    TMP DP  RH WIND       PRES   REMARKS
NASHVILLE      CLEAR     77  73  87 SW6       30.00R
CLARKSVILLE    PTCLDY    76  73  91 SW6       29.97R
SMYRNA         CLEAR     75  73  93 S5        30.01R
CROSSVILLE     PTCLDY    71  70  96 SW3       30.09R
$$

TNZ061-075-076-078-094-096-097-171100-
SOUTH MIDDLE TENNESSEE

CITY           SKY/WX    TMP DP  RH WIND       PRES   REMARKS
TULLAHOMA      MOCLDY    73  72  94 SW7       30.06R
WINCHESTER     PTCLDY    75  72  88 CALM      30.06R
$$

TNZ017-018-042-046-047-171100-
NORTHEAST TENNESSEE

CITY           SKY/WX    TMP DP  RH WIND       PRES   REMARKS
TRI CITIES     FOG       70  70 100 CALM      30.08R VSB 1/4
$$

TNZ012-013-036-069-073-074-171100-
CENTRAL EAST TENNESSEE

CITY           SKY/WX    TMP DP  RH WIND       PRES   REMARKS
KNOXVILLE      CLEAR     73  70  90 CALM      30.03R
OAK RIDGE      CLEAR     74  71  91 CALM      30.05R
GATLINBURG     PTCLDY    70  68  94 CALM      30.04S
$$

TNZ083-085-099-171100-
SOUTHEAST TENNESSEE

CITY           SKY/WX    TMP DP  RH WIND       PRES   REMARKS
CHATTANOOGA    PTCLDY    76  73  91 CALM      30.03S
$$

SKY/WX REPORTED AS FAIR MEANS FEW OR NO CLOUDS BELOW
12 THOUSAND FEET.





USA.gov is the U.S. government's official web portal to all federal, state and local government web resources and services.